Home > Weather > Spartanburg > Past weeks

Flag for U.S.A. Weather for the Past 2 Weeks in Spartanburg, South Carolina, U.S.A.

Now
32 °F

Overcast.


Feels Like: 27 °F
Forecast: 29 / 47 °F
Wind: 5 mph from Northeast

Location: Spartanburg Memorial

Current Time: Feb 12, 2016 at 8:03:55 AM

Latest Report: Feb 12, 2016 at 7:35 AM


Visibility: 10 mi

Pressure: 30.18 "Hg

Humidity: 47%

Dew point: 14 °F

Location of SpartanburgLocation

Historic Weather in Spartanburg — Graph

°F

Spartanburg Temperature Yesterday

Maximum temperature yesterday: 46 °F (at 3:55 PM)
Minimum temperature yesterday: 19 °F (at 7:35 AM)
Average temperature yesterday: 33 °F

High & Low Weather Summary for the Past Weeks

 TemperatureHumidityPressure
High66 °F (Feb 1, 4:15 PM)100% (Feb 2, 6:15 AM)30.42 "Hg (Feb 2, 6:15 AM)
Low19 °F (Feb 11, 7:35 AM)15% (Jan 29, 5:15 PM)29.65 "Hg (Feb 8, 2:35 PM)
Average43 °F60%30.02 "Hg
* Reported Jan 28 7:15 AM — Feb 12 7:15 AM, Spartanburg, Weather by CustomWeather, © 2016

Note: Actual official high and low records may vary slightly from our data, if they occured in-between our weather recording intervals... More about our weather records

Advertising

Spartanburg Weather History for the Previous 24 Hours

 ConditionsComfort  
Time TempWeatherWind HumidityBarometerVisibility
7:15 AM
Fri, Feb 12
32 °FMostly cloudy.5 mph47%30.18 "Hg10 mi
6:35 AM32 °FClear.6 mph47%30.17 "Hg10 mi
6:15 AM32 °FClear.6 mph51%30.17 "Hg10 mi
5:55 AM30 °FClear.6 mph59%30.18 "Hg10 mi
5:35 AM30 °FClear.6 mph59%30.19 "Hg10 mi
5:15 AM32 °FPassing clouds.8 mph55%30.18 "Hg10 mi
4:55 AM32 °FPassing clouds.6 mph55%30.19 "Hg10 mi
4:35 AM32 °FPassing clouds.6 mph55%30.18 "Hg10 mi
4:15 AM32 °FClear.5 mph55%30.18 "Hg10 mi
3:55 AM32 °FClear.6 mph55%30.17 "Hg10 mi
3:35 AM32 °FClear.8 mph60%30.20 "Hg10 mi
3:15 AM32 °FPassing clouds.7 mph60%30.20 "Hg10 mi
2:55 AM32 °FPassing clouds.7 mph60%30.20 "Hg10 mi
2:35 AM32 °FClear.3 mph60%30.20 "Hg10 mi
2:15 AM32 °FClear.5 mph60%30.21 "Hg10 mi
1:55 AM32 °FClear.3 mph60%30.21 "Hg10 mi
1:35 AM32 °FClear.3 mph60%30.21 "Hg10 mi
1:15 AM32 °FClear.5 mph60%30.21 "Hg10 mi
12:35 AM32 °FClear.7 mph60%30.21 "Hg10 mi
11:55 PM
Thu, Feb 11
34 °FClear.6 mph56%30.21 "Hg10 mi
11:35 PM32 °FClear.6 mph60%30.20 "Hg10 mi
11:15 PM34 °FClear.5 mph56%30.20 "Hg10 mi
10:55 PM34 °FClear.5 mph56%30.21 "Hg10 mi
10:15 PM32 °FClear.3 mph69%30.21 "Hg10 mi
9:35 PM32 °FClear.No wind64%30.20 "Hg10 mi
9:15 PM36 °FClear.5 mph56%30.20 "Hg10 mi
8:55 PM36 °FClear.3 mph56%30.20 "Hg10 mi
8:35 PM37 °FClear.3 mph52%30.20 "Hg10 mi
8:15 PM37 °FClear.5 mph52%30.19 "Hg10 mi
7:35 PM37 °FClear.No wind52%30.18 "Hg10 mi
7:15 PM41 °FClear.No wind42%30.17 "Hg10 mi
6:55 PM41 °FClear.No wind42%30.16 "Hg10 mi
6:35 PM43 °FClear.3 mph39%30.16 "Hg10 mi
6:15 PM43 °FClear.No wind42%30.15 "Hg10 mi
5:15 PM46 °FSunny.No wind34%30.12 "Hg10 mi
4:35 PM46 °FSunny.5 mph34%30.11 "Hg10 mi
4:15 PM46 °FSunny.No wind34%30.11 "Hg10 mi
3:55 PM46 °FSunny.6 mph34%30.10 "Hg10 mi
3:35 PM45 °FSunny.6 mph37%30.10 "Hg10 mi
3:15 PM45 °FSunny.7 mph37%30.11 "Hg10 mi
2:55 PM45 °FSunny.6 mph37%30.11 "Hg10 mi
2:35 PM45 °FSunny.6 mph37%30.12 "Hg10 mi
2:15 PM45 °FSunny.6 mph34%30.13 "Hg10 mi
1:55 PM43 °FSunny.9 mph39%30.13 "Hg10 mi
1:35 PM43 °FSunny.6 mph36%30.14 "Hg10 mi
12:55 PM39 °FSunny.5 mph42%30.17 "Hg10 mi
12:15 PM39 °FSunny.7 mph42%30.18 "Hg10 mi
11:35 AM37 °FSunny.8 mph45%30.20 "Hg10 mi
11:15 AM36 °FSunny.No wind44%30.20 "Hg10 mi
10:55 AM34 °FSunny.No wind44%30.20 "Hg10 mi
10:35 AM34 °FSunny.No wind44%30.21 "Hg10 mi
10:15 AM32 °FSunny.No wind44%30.20 "Hg10 mi
9:55 AM32 °FSunny.No wind40%30.20 "Hg10 mi
9:35 AM32 °FSunny.No wind40%30.19 "Hg10 mi
9:15 AM30 °FSunny.No wind43%30.19 "Hg10 mi
8:55 AM28 °FSunny.No wind47%30.18 "Hg10 mi
8:35 AM27 °FSunny.No wind59%30.17 "Hg10 mi
8:15 AM23 °FSunny.No wind68%30.16 "Hg10 mi
Weather by CustomWeather, © 2016

See weather overviewHow to use our weather pages